Location: Stoke Bliss
(52.2667°N, 2.5167°W)
Time: 01:24:43
(UTC+00:00)

Meteor 1-19 Rocket - Pass Details

Date: 20 June 2021
Orbit: 808 x 927 km, 81.2° (Epoch: 02 August)

Event Time Altitude Azimuth Distance (km) Brightness Sun altitude
Rises 02:33:42 0° 352° (N) 3,577 8.3 -8.2°
Reaches altitude 10° 02:37:14 10° 13° (NNE) 2,639 8.1 -7.9°
Maximum altitude 02:40:59 17° 52° (NE) 2,194 7.6 -7.6°
Drops below altitude 10° 02:44:43 10° 90° (E) 2,633 7.3 -7.3°
Sets 02:48:13 0° 111° (ESE) 3,565 7.7 -6.9°
